Location: Mount Kobau Star Party
(49.1167°N, 119.7333°W)
Time: 18:35:24
(UTC-07:00)

ISS - Visible Passes

Search period start: 15 April 2026 00:00
Search period end: 25 April 2026 00:00
Orbit: 415 x 424 km, 51.6° (Epoch: 15 April)

Date Brightness Start Highest point End Pass type
(mag) Time Alt. Az. Time Alt. Az. Time Alt. Az.
19 Apr -1.5 04:57:47 10° S 05:00:08 18° SE 05:02:29 10° E visible
20 Apr -1.1 04:11:39 10° SSE 04:12:55 12° SE 04:14:11 10° ESE visible
21 Apr -2.8 04:58:51 11° SW 05:01:47 38° SSE 05:04:57 10° ENE visible
22 Apr -2.2 04:13:13 21° S 04:14:28 26° SE 04:17:19 10° E visible
23 Apr -1.6 03:27:31 18° SE 03:27:31 18° SE 03:29:32 10° E visible
23 Apr -3.7 05:00:28 12° WSW 05:03:34 78° SSE 05:06:57 10° ENE visible
24 Apr -3.5 04:14:43 29° SW 04:16:09 56° SSE 04:19:27 10° ENE visible
